Time,TemperatureF,DewpointF,PressureIn,WindDirection,WindDirectionDegrees,WindSpeedMPH,WindSpeedGustMPH,Humidity,HourlyPrecipIn,Conditions,Clouds,dailyrainin,SoftwareType,DateUTC
2013-06-18 00:01:00,61.0,50.5,29.89,South,180,1.0,6.0,69,0.00,,,0.00,Rainwise IP-100,2013-06-18 04:01:00,
2013-06-18 00:06:00,61.0,45.0,29.89,SSW,202,4.0,6.0,55,0.00,,,0.00,Rainwise IP-100,2013-06-18 04:06:00,
2013-06-18 00:11:00,61.0,50.5,29.89,WSW,247,2.0,7.0,68,0.00,,,0.00,Rainwise IP-100,2013-06-18 04:11:00,
2013-06-18 00:16:00,61.0,44.0,29.89,SW,225,0.0,7.0,54,0.00,,,0.00,Rainwise IP-100,2013-06-18 04:16:00,
2013-06-18 00:21:00,61.0,50.0,29.88,SW,225,7.0,9.0,67,0.00,,,0.00,Rainwise IP-100,2013-06-18 04:21:00,
2013-06-18 00:26:00,61.0,43.0,29.88,SW,225,6.0,9.0,52,0.00,,,0.00,Rainwise IP-100,2013-06-18 04:26:00,
2013-06-18 00:31:00,61.0,50.0,29.88,West,270,1.0,8.0,66,0.00,,,0.00,Rainwise IP-100,2013-06-18 04:31:00,
2013-06-18 00:36:00,60.0,42.0,29.88,SW,225,0.0,9.0,51,0.00,,,0.00,Rainwise IP-100,2013-06-18 04:36:00,
2013-06-18 00:41:00,60.0,48.0,29.89,SSW,202,2.0,10.0,65,0.00,,,0.00,Rainwise IP-100,2013-06-18 04:41:00,
2013-06-18 00:46:00,60.0,40.0,29.89,SW,225,2.0,8.0,49,0.00,,,0.00,Rainwise IP-100,2013-06-18 04:46:00,
2013-06-18 00:51:00,60.0,41.0,29.89,SW,225,3.0,8.0,50,0.00,,,0.00,Rainwise IP-100,2013-06-18 04:51:00,
2013-06-18 00:56:00,60.0,40.0,29.89,SW,225,6.0,10.0,48,0.00,,,0.00,Rainwise IP-100,2013-06-18 04:56:00,
2013-06-18 01:01:00,60.0,40.0,29.88,WSW,247,3.0,12.0,49,0.00,,,0.00,Rainwise IP-100,2013-06-18 05:01:00,
2013-06-18 01:07:00,60.0,39.0,29.88,SSW,202,1.0,12.0,46,0.00,,,0.00,Rainwise IP-100,2013-06-18 05:07:00,
2013-06-18 01:12:00,60.0,39.0,29.88,SW,225,6.0,11.0,47,0.00,,,0.00,Rainwise IP-100,2013-06-18 05:12:00,
2013-06-18 01:17:00,60.0,39.0,29.88,SW,225,4.0,9.0,46,0.00,,,0.00,Rainwise IP-100,2013-06-18 05:17:00,
2013-06-18 01:22:00,60.0,39.0,29.88,SW,225,4.0,9.0,47,0.00,,,0.00,Rainwise IP-100,2013-06-18 05:22:00,
2013-06-18 01:27:00,59.0,37.0,29.88,SW,225,12.0,12.0,43,0.00,,,0.00,Rainwise IP-100,2013-06-18 05:27:00,
2013-06-18 01:32:00,59.0,38.0,29.89,SW,225,3.0,12.0,45,0.00,,,0.00,Rainwise IP-100,2013-06-18 05:32:00,
2013-06-18 01:37:00,59.0,37.0,29.89,West,270,6.0,11.0,43,0.00,,,0.00,Rainwise IP-100,2013-06-18 05:37:00,
2013-06-18 01:42:00,59.0,37.0,29.88,SW,225,7.0,12.0,44,0.00,,,0.00,Rainwise IP-100,2013-06-18 05:42:00,
2013-06-18 01:47:00,59.0,37.0,29.88,SW,225,3.0,11.0,43,0.00,,,0.00,Rainwise IP-100,2013-06-18 05:47:00,
2013-06-18 01:52:00,59.0,37.0,29.89,WSW,247,5.0,12.0,43,0.00,,,0.00,Rainwise IP-100,2013-06-18 05:52:00,
2013-06-18 01:57:00,59.0,36.0,29.89,SW,225,3.0,9.0,41,0.00,,,0.00,Rainwise IP-100,2013-06-18 05:57:00,
2013-06-18 02:00:00,59.0,36.0,29.89,SW,225,5.0,9.0,41,0.00,,,0.00,Rainwise IP-100,2013-06-18 06:00:00,
2013-06-18 02:05:00,59.0,35.0,29.89,WSW,247,4.0,10.0,40,0.00,,,0.00,Rainwise IP-100,2013-06-18 06:05:00,
2013-06-18 02:10:00,59.0,35.0,29.89,WSW,247,1.0,10.0,40,0.00,,,0.00,Rainwise IP-100,2013-06-18 06:10:00,
2013-06-18 02:15:00,59.0,35.0,29.89,SSW,202,6.0,9.0,39,0.00,,,0.00,Rainwise IP-100,2013-06-18 06:15:00,
2013-06-18 02:20:00,59.0,43.0,29.88,SSW,202,2.0,13.0,56,0.00,,,0.00,Rainwise IP-100,2013-06-18 06:20:00,
2013-06-18 02:21:00,59.0,43.0,29.88,WSW,247,2.0,13.0,56,0.00,,,0.00,Rainwise IP-100,2013-06-18 06:21:00,
2013-06-18 02:26:00,59.0,35.0,29.88,WNW,292,0.0,10.0,39,0.00,,,0.00,Rainwise IP-100,2013-06-18 06:26:00,
2013-06-18 02:31:00,59.0,35.0,29.88,SW,225,6.0,10.0,39,0.00,,,0.00,Rainwise IP-100,2013-06-18 06:31:00,
2013-06-18 02:36:00,59.0,33.0,29.88,SW,225,2.0,9.0,38,0.00,,,0.00,Rainwise IP-100,2013-06-18 06:36:00,
2013-06-18 02:41:00,59.0,35.0,29.88,SW,225,6.0,7.0,39,0.00,,,0.00,Rainwise IP-100,2013-06-18 06:41:00,
2013-06-18 02:47:00,59.0,33.0,29.88,SW,225,0.0,7.0,38,0.00,,,0.00,Rainwise IP-100,2013-06-18 06:47:00,
2013-06-18 02:52:00,59.0,33.0,29.88,SW,225,1.0,7.0,38,0.00,,,0.00,Rainwise IP-100,2013-06-18 06:52:00,
2013-06-18 02:57:00,59.0,33.0,29.88,SSW,202,8.0,10.0,38,0.00,,,0.00,Rainwise IP-100,2013-06-18 06:57:00,
2013-06-18 03:02:00,59.0,33.0,29.88,SW,225,4.0,14.0,38,0.00,,,0.00,Rainwise IP-100,2013-06-18 07:02:00,
2013-06-18 03:07:00,59.0,33.0,29.88,SW,225,5.0,12.0,37,0.00,,,0.00,Rainwise IP-100,2013-06-18 07:07:00,
2013-06-18 03:12:00,59.0,33.0,29.88,SW,225,2.0,11.0,38,0.00,,,0.00,Rainwise IP-100,2013-06-18 07:12:00,
2013-06-18 03:17:00,59.0,33.0,29.88,SW,225,8.0,11.0,37,0.00,,,0.00,Rainwise IP-100,2013-06-18 07:17:00,
2013-06-18 03:22:00,59.0,33.0,29.88,SW,225,6.0,10.0,38,0.00,,,0.00,Rainwise IP-100,2013-06-18 07:22:00,
2013-06-18 03:27:00,59.0,33.0,29.88,SW,225,1.0,12.0,37,0.00,,,0.00,Rainwise IP-100,2013-06-18 07:27:00,
2013-06-18 03:32:00,59.0,33.0,29.88,SSW,202,5.0,11.0,38,0.00,,,0.00,Rainwise IP-100,2013-06-18 07:32:00,
2013-06-18 03:37:00,59.0,32.0,29.88,SSW,202,0.0,13.0,36,0.00,,,0.00,Rainwise IP-100,2013-06-18 07:37:00,
2013-06-18 03:42:00,59.0,33.0,29.88,West,270,1.0,11.0,37,0.00,,,0.00,Rainwise IP-100,2013-06-18 07:42:00,
2013-06-18 03:47:00,59.0,33.0,29.88,SW,225,8.0,10.0,37,0.00,,,0.00,Rainwise IP-100,2013-06-18 07:47:00,
2013-06-18 03:52:00,60.0,35.0,29.87,South,180,3.0,12.0,38,0.00,,,0.00,Rainwise IP-100,2013-06-18 07:52:00,
2013-06-18 03:58:00,60.0,35.0,29.87,SSW,202,5.0,12.0,38,0.00,,,0.00,Rainwise IP-100,2013-06-18 07:58:00,
2013-06-18 04:03:00,60.0,35.0,29.88,South,180,3.0,10.0,38,0.00,,,0.00,Rainwise IP-100,2013-06-18 08:03:00,
2013-06-18 04:08:00,60.0,35.0,29.88,SSW,202,0.0,11.0,38,0.00,,,0.00,Rainwise IP-100,2013-06-18 08:08:00,
2013-06-18 04:13:00,60.0,35.0,29.88,SW,225,4.0,9.0,38,0.00,,,0.00,Rainwise IP-100,2013-06-18 08:13:00,
2013-06-18 04:18:00,60.0,35.0,29.88,West,270,2.0,10.0,38,0.00,,,0.00,Rainwise IP-100,2013-06-18 08:18:00,
2013-06-18 04:23:00,60.0,35.0,29.88,South,180,1.0,11.0,38,0.00,,,0.00,Rainwise IP-100,2013-06-18 08:23:00,
2013-06-18 04:28:00,60.0,35.0,29.88,WSW,247,6.0,12.0,39,0.00,,,0.00,Rainwise IP-100,2013-06-18 08:28:00,
2013-06-18 04:33:00,60.0,35.0,29.88,SW,225,3.0,9.0,38,0.00,,,0.00,Rainwise IP-100,2013-06-18 08:33:00,
2013-06-18 04:38:00,59.0,33.0,29.88,WSW,247,4.0,10.0,38,0.00,,,0.00,Rainwise IP-100,2013-06-18 08:38:00,
2013-06-18 04:43:00,59.0,33.0,29.89,WSW,247,4.0,10.0,37,0.00,,,0.00,Rainwise IP-100,2013-06-18 08:43:00,
2013-06-18 04:48:00,59.0,33.0,29.89,SW,225,10.0,13.0,38,0.00,,,0.00,Rainwise IP-100,2013-06-18 08:48:00,
2013-06-18 04:53:00,59.0,33.0,29.90,SW,225,5.0,10.0,37,0.00,,,0.00,Rainwise IP-100,2013-06-18 08:53:00,
2013-06-18 04:58:00,59.0,33.0,29.90,West,270,3.0,9.0,37,0.00,,,0.00,Rainwise IP-100,2013-06-18 08:58:00,
2013-06-18 05:03:00,59.0,32.0,29.90,SW,225,0.0,9.0,36,0.00,,,0.00,Rainwise IP-100,2013-06-18 09:03:00,
2013-06-18 05:08:00,59.0,32.0,29.90,WNW,292,3.0,7.0,36,0.00,,,0.00,Rainwise IP-100,2013-06-18 09:08:00,
2013-06-18 05:14:00,59.0,32.0,29.90,NW,315,1.0,6.0,36,0.00,,,0.00,Rainwise IP-100,2013-06-18 09:14:00,
2013-06-18 05:19:00,59.0,32.0,29.90,WNW,292,5.0,7.0,36,0.00,,,0.00,Rainwise IP-100,2013-06-18 09:19:00,
2013-06-18 05:24:00,59.0,32.0,29.90,WNW,292,4.0,7.0,36,0.00,,,0.00,Rainwise IP-100,2013-06-18 09:24:00,
2013-06-18 05:29:00,59.0,32.0,29.90,West,270,1.0,7.0,36,0.00,,,0.00,Rainwise IP-100,2013-06-18 09:29:00,
2013-06-18 05:34:00,59.0,32.0,29.91,NW,315,0.0,8.0,36,0.00,,,0.00,Rainwise IP-100,2013-06-18 09:34:00,
2013-06-18 05:39:00,59.0,32.0,29.91,West,270,3.0,6.0,35,0.00,,,0.00,Rainwise IP-100,2013-06-18 09:39:00,
2013-06-18 05:44:00,59.0,32.0,29.91,SSW,202,0.0,6.0,35,0.00,,,0.00,Rainwise IP-100,2013-06-18 09:44:00,
2013-06-18 05:49:00,59.0,32.0,29.91,SSW,202,2.0,4.0,36,0.00,,,0.00,Rainwise IP-100,2013-06-18 09:49:00,
2013-06-18 05:54:00,59.0,32.0,29.90,SW,225,2.0,6.0,35,0.00,,,0.00,Rainwise IP-100,2013-06-18 09:54:00,
2013-06-18 05:59:00,59.0,32.0,29.90,NNW,337,1.0,2.0,35,0.00,,,0.00,Rainwise IP-100,2013-06-18 09:59:00,
2013-06-18 06:04:00,59.0,32.0,29.90,WNW,292,1.0,6.0,35,0.00,,,0.00,Rainwise IP-100,2013-06-18 10:04:00,
2013-06-18 06:09:00,59.0,32.0,29.90,NW,315,0.0,3.0,36,0.00,,,0.00,Rainwise IP-100,2013-06-18 10:09:00,
2013-06-18 06:14:00,60.0,32.0,29.90,WNW,292,0.0,2.0,35,0.00,,,0.00,Rainwise IP-100,2013-06-18 10:14:00,
2013-06-18 06:19:00,60.0,32.0,29.90,NNW,337,0.0,4.0,35,0.00,,,0.00,Rainwise IP-100,2013-06-18 10:19:00,
2013-06-18 06:24:00,60.0,31.0,29.91,WNW,292,0.0,4.0,33,0.00,,,0.00,Rainwise IP-100,2013-06-18 10:24:00,
2013-06-18 06:30:00,60.0,32.0,29.91,WNW,292,0.0,4.0,35,0.00,,,0.00,Rainwise IP-100,2013-06-18 10:30:00,
2013-06-18 06:35:00,60.0,31.0,29.90,NW,315,0.0,4.0,33,0.00,,,0.00,Rainwise IP-100,2013-06-18 10:35:00,
2013-06-18 06:40:00,60.0,32.0,29.90,SW,225,0.0,0.0,34,0.00,,,0.00,Rainwise IP-100,2013-06-18 10:40:00,
2013-06-18 06:45:00,60.0,31.0,29.90,SSW,202,0.0,0.0,33,0.00,,,0.00,Rainwise IP-100,2013-06-18 10:45:00,
2013-06-18 06:50:00,61.0,32.0,29.90,SW,225,2.0,3.0,33,0.00,,,0.00,Rainwise IP-100,2013-06-18 10:50:00,
2013-06-18 06:55:00,61.0,31.0,29.90,SSW,202,0.0,4.0,31,0.00,,,0.00,Rainwise IP-100,2013-06-18 10:55:00,
2013-06-18 07:00:00,61.0,42.0,29.90,SW,225,0.0,2.0,50,0.00,,,0.00,Rainwise IP-100,2013-06-18 11:00:00,
2013-06-18 07:06:00,61.0,31.0,29.90,SSW,202,2.0,2.0,31,0.00,,,0.00,Rainwise IP-100,2013-06-18 11:06:00,
2013-06-18 07:11:00,62.0,43.0,29.90,SW,225,0.0,4.0,50,0.00,,,0.00,Rainwise IP-100,2013-06-18 11:11:00,
2013-06-18 07:16:00,62.0,29.0,29.90,South,180,0.0,3.0,29,0.00,,,0.00,Rainwise IP-100,2013-06-18 11:16:00,
2013-06-18 07:21:00,62.0,43.0,29.90,SW,225,2.0,5.0,50,0.00,,,0.00,Rainwise IP-100,2013-06-18 11:21:00,
2013-06-18 07:26:00,63.0,31.0,29.90,WSW,247,0.0,5.0,29,0.00,,,0.00,Rainwise IP-100,2013-06-18 11:26:00,
2013-06-18 07:31:00,63.0,43.0,29.90,WSW,247,0.0,0.0,49,0.00,,,0.00,Rainwise IP-100,2013-06-18 11:31:00,
2013-06-18 07:36:00,63.0,29.0,29.90,SSW,202,0.0,4.0,28,0.00,,,0.00,Rainwise IP-100,2013-06-18 11:36:00,
2013-06-18 07:41:00,63.0,43.0,29.90,SW,225,0.0,3.0,49,0.00,,,0.00,Rainwise IP-100,2013-06-18 11:41:00,
2013-06-18 07:46:00,63.0,29.0,29.90,SW,225,3.0,6.0,28,0.00,,,0.00,Rainwise IP-100,2013-06-18 11:46:00,
2013-06-18 07:51:00,64.0,44.0,29.89,SW,225,0.0,6.0,49,0.00,,,0.00,Rainwise IP-100,2013-06-18 11:51:00,
2013-06-18 07:56:00,64.0,31.0,29.89,SW,225,2.0,6.0,29,0.00,,,0.00,Rainwise IP-100,2013-06-18 11:56:00,
2013-06-18 08:01:00,64.0,44.0,29.90,SW,225,1.0,5.0,48,0.00,,,0.00,Rainwise IP-100,2013-06-18 12:01:00,
2013-06-18 08:06:00,66.0,32.0,29.90,SSW,202,0.0,3.0,28,0.00,,,0.00,Rainwise IP-100,2013-06-18 12:06:00,
2013-06-18 08:11:00,66.0,31.0,29.90,South,180,0.0,0.0,27,0.00,,,0.00,Rainwise IP-100,2013-06-18 12:11:00,
2013-06-18 08:16:00,67.0,32.0,29.90,SSW,202,0.0,3.0,27,0.00,,,0.00,Rainwise IP-100,2013-06-18 12:16:00,
2013-06-18 08:21:00,67.0,46.0,29.89,SSW,202,5.0,5.0,47,0.00,,,0.00,Rainwise IP-100,2013-06-18 12:21:00,
2013-06-18 08:26:00,67.0,32.0,29.89,South,180,0.0,5.0,27,0.00,,,0.00,Rainwise IP-100,2013-06-18 12:26:00,
2013-06-18 08:31:00,66.0,45.0,29.90,South,180,3.0,4.0,47,0.00,,,0.00,Rainwise IP-100,2013-06-18 12:31:00,
2013-06-18 08:36:00,67.0,32.0,29.90,SW,225,0.0,3.0,27,0.00,,,0.00,Rainwise IP-100,2013-06-18 12:36:00,
2013-06-18 08:41:00,69.0,47.5,29.88,SW,225,0.0,0.0,47,0.00,,,0.00,Rainwise IP-100,2013-06-18 12:41:00,
2013-06-18 08:46:00,70.0,33.0,29.88,SW,225,0.0,0.0,26,0.00,,,0.00,Rainwise IP-100,2013-06-18 12:46:00,
2013-06-18 08:51:00,71.0,49.0,29.88,SSE,157,0.0,0.0,46,0.00,,,0.00,Rainwise IP-100,2013-06-18 12:51:00,
2013-06-18 08:56:00,71.0,35.0,29.88,SSE,157,0.0,0.0,26,0.00,,,0.00,Rainwise IP-100,2013-06-18 12:56:00,
2013-06-18 09:01:00,69.0,33.0,29.88,SE,135,0.0,0.0,27,0.00,,,0.00,Rainwise IP-100,2013-06-18 13:01:00,
2013-06-18 09:06:00,69.0,36.0,29.88,ESE,112,0.0,3.0,29,0.00,,,0.00,Rainwise IP-100,2013-06-18 13:06:00,
2013-06-18 09:12:00,70.0,36.0,29.89,East,90,0.0,4.0,29,0.00,,,0.00,Rainwise IP-100,2013-06-18 13:12:00,
2013-06-18 09:17:00,72.0,39.0,29.89,North,360,0.0,3.0,30,0.00,,,0.00,Rainwise IP-100,2013-06-18 13:17:00,
2013-06-18 09:22:00,71.0,41.0,29.87,North,360,4.0,6.0,34,0.00,,,0.00,Rainwise IP-100,2013-06-18 13:22:00,
2013-06-18 09:27:00,71.0,47.0,29.87,ENE,67,1.0,6.0,42,0.00,,,0.00,Rainwise IP-100,2013-06-18 13:27:00,
2013-06-18 09:32:00,72.0,53.0,29.88,NNW,337,0.0,5.0,51,0.00,,,0.00,Rainwise IP-100,2013-06-18 13:32:00,
2013-06-18 09:37:00,73.0,56.0,29.88,NNE,22,3.0,0.0,55,0.00,,,0.00,Rainwise IP-100,2013-06-18 13:37:00,
2013-06-18 09:42:00,72.0,59.0,29.88,NNE,22,0.0,6.0,63,0.00,,,0.00,Rainwise IP-100,2013-06-18 13:42:00,
2013-06-18 09:47:00,71.0,59.0,29.88,NE,45,0.0,6.0,66,0.00,,,0.00,Rainwise IP-100,2013-06-18 13:47:00,
2013-06-18 09:52:00,70.0,58.0,29.88,ENE,67,0.0,6.0,66,0.00,,,0.00,Rainwise IP-100,2013-06-18 13:52:00,
2013-06-18 09:57:00,71.0,59.0,29.88,NNE,22,6.0,7.0,66,0.00,,,0.00,Rainwise IP-100,2013-06-18 13:57:00,
2013-06-18 10:02:00,69.0,56.5,29.90,ENE,67,4.0,7.0,65,0.00,,,0.00,Rainwise IP-100,2013-06-18 14:02:00,
2013-06-18 10:08:00,70.0,57.5,29.90,North,360,0.0,6.0,65,0.00,,,0.00,Rainwise IP-100,2013-06-18 14:08:00,
2013-06-18 10:13:00,70.0,59.0,29.88,NE,45,2.0,5.0,68,0.00,,,0.00,Rainwise IP-100,2013-06-18 14:13:00,
2013-06-18 10:18:00,71.0,59.0,29.88,North,360,3.0,6.0,66,0.00,,,0.00,Rainwise IP-100,2013-06-18 14:18:00,
2013-06-18 10:23:00,70.0,59.5,29.88,NNE,22,3.0,6.0,69,0.00,,,0.00,Rainwise IP-100,2013-06-18 14:23:00,
2013-06-18 10:28:00,69.0,57.5,29.88,ENE,67,2.0,5.0,67,0.00,,,0.00,Rainwise IP-100,2013-06-18 14:28:00,
2013-06-18 10:33:00,70.0,58.0,29.89,South,180,2.0,5.0,66,0.00,,,0.00,Rainwise IP-100,2013-06-18 14:33:00,
2013-06-18 10:39:00,70.0,59.0,29.89,ENE,67,3.0,6.0,68,0.00,,,0.00,Rainwise IP-100,2013-06-18 14:39:00,
2013-06-18 10:44:00,70.0,59.0,29.89,NE,45,4.0,6.0,68,0.00,,,0.00,Rainwise IP-100,2013-06-18 14:44:00,
2013-06-18 10:49:00,70.0,59.0,29.89,NNE,22,5.0,5.0,68,0.00,,,0.00,Rainwise IP-100,2013-06-18 14:49:00,
2013-06-18 10:54:00,69.0,57.0,29.89,NE,45,6.0,6.0,66,0.00,,,0.00,Rainwise IP-100,2013-06-18 14:54:00,
2013-06-18 10:59:00,69.0,57.0,29.89,NE,45,0.0,7.0,66,0.00,,,0.00,Rainwise IP-100,2013-06-18 14:59:00,
2013-06-18 11:04:00,70.0,59.0,29.89,ENE,67,0.0,6.0,67,0.00,,,0.00,Rainwise IP-100,2013-06-18 15:04:00,
2013-06-18 11:09:00,71.0,59.5,29.89,East,90,6.0,6.0,67,0.00,,,0.00,Rainwise IP-100,2013-06-18 15:09:00,
2013-06-18 11:14:00,70.0,59.0,29.88,North,360,3.0,6.0,67,0.00,,,0.00,Rainwise IP-100,2013-06-18 15:14:00,
2013-06-18 11:19:00,70.0,59.0,29.88,NNE,22,4.0,6.0,68,0.00,,,0.00,Rainwise IP-100,2013-06-18 15:19:00,
2013-06-18 11:25:00,71.0,60.0,29.88,NE,45,0.0,5.0,68,0.00,,,0.00,Rainwise IP-100,2013-06-18 15:25:00,
2013-06-18 11:30:00,71.0,60.0,29.88,North,360,2.0,5.0,68,0.00,,,0.00,Rainwise IP-100,2013-06-18 15:30:00,
2013-06-18 11:35:00,72.0,61.5,29.87,ENE,67,2.0,4.0,70,0.00,,,0.00,Rainwise IP-100,2013-06-18 15:35:00,
2013-06-18 11:40:00,72.0,61.5,29.87,ENE,67,0.0,5.0,70,0.00,,,0.00,Rainwise IP-100,2013-06-18 15:40:00,
2013-06-18 11:45:00,73.0,62.5,29.87,NE,45,0.0,4.0,70,0.00,,,0.00,Rainwise IP-100,2013-06-18 15:45:00,
2013-06-18 11:50:00,73.0,63.0,29.87,SE,135,0.0,6.0,71,0.00,,,0.00,Rainwise IP-100,2013-06-18 15:50:00,
2013-06-18 11:55:00,72.0,63.0,29.86,SE,135,3.0,10.0,73,0.00,,,0.00,Rainwise IP-100,2013-06-18 15:55:00,
2013-06-18 12:00:00,73.0,64.0,29.86,ESE,112,6.0,10.0,73,0.00,,,0.00,Rainwise IP-100,2013-06-18 16:00:00,
2013-06-18 12:05:00,73.0,64.0,29.86,ESE,112,0.0,7.0,73,0.00,,,0.00,Rainwise IP-100,2013-06-18 16:05:00,
2013-06-18 12:10:00,72.0,63.0,29.86,SE,135,3.0,9.0,74,0.00,,,0.00,Rainwise IP-100,2013-06-18 16:10:00,
2013-06-18 12:15:00,72.0,63.0,29.86,SE,135,6.0,8.0,74,0.00,,,0.00,Rainwise IP-100,2013-06-18 16:15:00,
2013-06-18 12:20:00,73.0,64.5,29.86,SE,135,0.0,8.0,74,0.00,,,0.00,Rainwise IP-100,2013-06-18 16:20:00,
2013-06-18 12:25:00,73.0,65.0,29.87,South,180,6.0,12.0,75,0.00,,,0.00,Rainwise IP-100,2013-06-18 16:25:00,
2013-06-18 12:30:00,71.0,64.5,29.88,South,180,5.0,11.0,80,0.00,,,0.00,Rainwise IP-100,2013-06-18 16:30:00,
2013-06-18 12:36:00,71.0,62.0,29.88,SW,225,9.0,10.0,74,0.00,,,0.00,Rainwise IP-100,2013-06-18 16:36:00,
2013-06-18 12:41:00,72.0,65.5,29.86,South,180,0.0,8.0,80,0.00,,,0.00,Rainwise IP-100,2013-06-18 16:41:00,
2013-06-18 12:46:00,71.0,62.0,29.86,SSE,157,1.0,10.0,74,0.00,,,0.00,Rainwise IP-100,2013-06-18 16:46:00,
2013-06-18 12:51:00,70.0,63.0,29.87,SW,225,6.0,10.0,79,0.00,,,0.00,Rainwise IP-100,2013-06-18 16:51:00,
2013-06-18 12:56:00,70.0,61.0,29.87,SE,135,6.0,10.0,73,0.00,,,0.00,Rainwise IP-100,2013-06-18 16:56:00,
2013-06-18 13:01:00,71.0,63.5,29.86,SSW,202,2.0,10.0,78,0.00,,,0.00,Rainwise IP-100,2013-06-18 17:01:00,
2013-06-18 13:06:00,71.0,61.5,29.86,SE,135,2.0,9.0,73,0.00,,,0.00,Rainwise IP-100,2013-06-18 17:06:00,
2013-06-18 13:11:00,71.0,64.0,29.86,South,180,5.0,8.0,79,0.00,,,0.00,Rainwise IP-100,2013-06-18 17:11:00,
2013-06-18 13:16:00,71.0,61.5,29.86,SSW,202,0.0,9.0,73,0.00,,,0.00,Rainwise IP-100,2013-06-18 17:16:00,
2013-06-18 13:22:00,72.0,63.5,29.85,ESE,112,0.0,6.0,75,0.00,,,0.00,Rainwise IP-100,2013-06-18 17:22:00,
2013-06-18 13:27:00,71.0,62.0,29.85,SW,225,5.0,7.0,74,0.00,,,0.00,Rainwise IP-100,2013-06-18 17:27:00,
2013-06-18 13:32:00,70.0,62.0,29.86,SE,135,5.0,7.0,75,0.00,,,0.00,Rainwise IP-100,2013-06-18 17:32:00,
2013-06-18 13:37:00,72.0,63.0,29.86,SW,225,2.0,6.0,74,0.00,,,0.00,Rainwise IP-100,2013-06-18 17:37:00,
2013-06-18 13:42:00,72.0,63.5,29.85,ESE,112,1.0,7.0,75,0.00,,,0.00,Rainwise IP-100,2013-06-18 17:42:00,
2013-06-18 13:48:00,71.0,62.0,29.85,South,180,8.0,9.0,74,0.00,,,0.00,Rainwise IP-100,2013-06-18 17:48:00,
2013-06-18 13:53:00,72.0,63.5,29.85,SE,135,8.0,9.0,75,0.00,,,0.00,Rainwise IP-100,2013-06-18 17:53:00,
2013-06-18 13:58:00,71.0,61.5,29.85,SSE,157,6.0,9.0,73,0.00,,,0.00,Rainwise IP-100,2013-06-18 17:58:00,
2013-06-18 14:03:00,70.0,61.0,29.85,ESE,112,2.0,9.0,73,0.00,,,0.00,Rainwise IP-100,2013-06-18 18:03:00,
2013-06-18 14:08:00,69.0,59.5,29.85,SW,225,7.0,8.0,72,0.00,,,0.00,Rainwise IP-100,2013-06-18 18:08:00,
2013-06-18 14:13:00,69.0,60.5,29.86,SSE,157,5.0,10.0,75,0.00,,,0.00,Rainwise IP-100,2013-06-18 18:13:00,
2013-06-18 14:18:00,68.0,59.0,29.86,South,180,3.0,10.0,73,0.00,,,0.00,Rainwise IP-100,2013-06-18 18:18:00,
2013-06-18 14:23:00,67.0,57.5,29.86,SSW,202,5.0,9.0,72,0.00,,,0.00,Rainwise IP-100,2013-06-18 18:23:00,
2013-06-18 14:28:00,68.0,59.0,29.86,South,180,0.0,6.0,73,0.00,,,0.00,Rainwise IP-100,2013-06-18 18:28:00,
2013-06-18 14:33:00,69.0,60.0,29.85,SE,135,0.0,7.0,73,0.00,,,0.00,Rainwise IP-100,2013-06-18 18:33:00,
2013-06-18 14:38:00,68.0,59.0,29.85,SSW,202,5.0,6.0,73,0.00,,,0.00,Rainwise IP-100,2013-06-18 18:38:00,
2013-06-18 14:44:00,68.0,59.0,29.85,WSW,247,5.0,7.0,72,0.00,,,0.00,Rainwise IP-100,2013-06-18 18:44:00,
2013-06-18 14:49:00,68.0,58.0,29.85,South,180,2.0,7.0,71,0.00,,,0.00,Rainwise IP-100,2013-06-18 18:49:00,
2013-06-18 14:54:00,68.0,59.0,29.84,SW,225,3.0,8.0,72,0.00,,,0.00,Rainwise IP-100,2013-06-18 18:54:00,
2013-06-18 14:59:00,68.0,58.0,29.84,South,180,4.0,7.0,71,0.00,,,0.00,Rainwise IP-100,2013-06-18 18:59:00,
2013-06-18 15:04:00,68.0,58.0,29.85,SE,135,6.0,8.0,71,0.00,,,0.00,Rainwise IP-100,2013-06-18 19:04:00,
2013-06-18 15:09:00,67.0,56.5,29.85,South,180,0.0,9.0,69,0.00,,,0.00,Rainwise IP-100,2013-06-18 19:09:00,
2013-06-18 15:14:00,67.0,56.5,29.84,SW,225,1.0,7.0,69,0.00,,,0.00,Rainwise IP-100,2013-06-18 19:14:00,
2013-06-18 15:19:00,66.0,55.0,29.84,SW,225,3.0,9.0,68,0.00,,,0.00,Rainwise IP-100,2013-06-18 19:19:00,
2013-06-18 15:25:00,66.0,54.5,29.85,SW,225,4.0,8.0,67,0.00,,,0.00,Rainwise IP-100,2013-06-18 19:25:00,
2013-06-18 15:30:00,66.0,54.0,29.85,SSW,202,4.0,8.0,66,0.00,,,0.00,Rainwise IP-100,2013-06-18 19:30:00,
2013-06-18 15:35:00,65.0,53.0,29.85,SSW,202,6.0,10.0,65,0.00,,,0.00,Rainwise IP-100,2013-06-18 19:35:00,
2013-06-18 15:40:00,65.0,52.0,29.85,SSE,157,0.0,7.0,63,0.00,,,0.00,Rainwise IP-100,2013-06-18 19:40:00,
2013-06-18 15:45:00,65.0,52.0,29.85,SW,225,5.0,8.0,63,0.00,,,0.00,Rainwise IP-100,2013-06-18 19:45:00,
2013-06-18 15:50:00,66.0,53.0,29.85,SE,135,3.0,7.0,62,0.00,,,0.00,Rainwise IP-100,2013-06-18 19:50:00,
2013-06-18 15:55:00,66.0,53.0,29.84,South,180,8.0,8.0,62,0.00,,,0.00,Rainwise IP-100,2013-06-18 19:55:00,
2013-06-18 16:00:00,66.0,53.0,29.84,SW,225,8.0,10.0,62,0.00,,,0.00,Rainwise IP-100,2013-06-18 20:00:00,
2013-06-18 16:05:00,65.0,52.0,29.85,South,180,4.0,9.0,63,0.00,,,0.00,Rainwise IP-100,2013-06-18 20:05:00,
2013-06-18 16:10:00,65.0,51.0,29.85,South,180,2.0,8.0,62,0.00,,,0.00,Rainwise IP-100,2013-06-18 20:10:00,
2013-06-18 16:15:00,65.0,51.0,29.85,South,180,2.0,5.0,62,0.00,,,0.00,Rainwise IP-100,2013-06-18 20:15:00,
2013-06-18 16:20:00,65.0,56.0,29.85,SW,225,2.0,7.0,72,0.00,,,0.00,Rainwise IP-100,2013-06-18 20:20:00,
2013-06-18 16:25:00,65.0,51.0,29.85,WSW,247,1.0,7.0,62,0.00,,,0.00,Rainwise IP-100,2013-06-18 20:25:00,
2013-06-18 16:30:00,65.0,56.0,29.85,SE,135,0.0,5.0,72,0.00,,,0.00,Rainwise IP-100,2013-06-18 20:30:00,
2013-06-18 16:36:00,65.0,51.0,29.85,SE,135,0.0,4.0,62,0.00,,,0.00,Rainwise IP-100,2013-06-18 20:36:00,
2013-06-18 16:41:00,65.0,56.0,29.86,SE,135,2.0,6.0,72,0.00,,,0.00,Rainwise IP-100,2013-06-18 20:41:00,
2013-06-18 16:46:00,65.0,51.0,29.86,East,90,3.0,5.0,62,0.00,,,0.00,Rainwise IP-100,2013-06-18 20:46:00,
2013-06-18 16:51:00,65.0,55.0,29.86,East,90,0.0,4.0,71,0.00,,,0.00,Rainwise IP-100,2013-06-18 20:51:00,
2013-06-18 16:56:00,65.0,50.5,29.86,SE,135,0.0,3.0,60,0.00,,,0.00,Rainwise IP-100,2013-06-18 20:56:00,
2013-06-18 17:01:00,65.0,55.0,29.86,SE,135,1.0,5.0,71,0.00,,,0.00,Rainwise IP-100,2013-06-18 21:01:00,
2013-06-18 17:06:00,65.0,50.5,29.86,ESE,112,2.0,4.0,60,0.00,,,0.00,Rainwise IP-100,2013-06-18 21:06:00,
2013-06-18 17:11:00,65.0,54.5,29.85,SE,135,1.0,5.0,70,0.00,,,0.00,Rainwise IP-100,2013-06-18 21:11:00,
2013-06-18 17:16:00,65.0,50.5,29.85,ENE,67,0.0,3.0,59,0.00,,,0.00,Rainwise IP-100,2013-06-18 21:16:00,
2013-06-18 17:21:00,65.0,54.5,29.86,SSW,202,0.0,5.0,70,0.00,,,0.00,Rainwise IP-100,2013-06-18 21:21:00,
2013-06-18 17:26:00,65.0,50.5,29.86,South,180,0.0,7.0,59,0.00,,,0.00,Rainwise IP-100,2013-06-18 21:26:00,
2013-06-18 17:31:00,65.0,54.5,29.86,SE,135,0.0,7.0,70,0.00,,,0.00,Rainwise IP-100,2013-06-18 21:31:00,
2013-06-18 17:36:00,65.0,50.5,29.86,SSW,202,2.0,7.0,59,0.00,,,0.00,Rainwise IP-100,2013-06-18 21:36:00,
2013-06-18 17:41:00,65.0,50.5,29.85,SSW,202,0.0,5.0,60,0.00,,,0.00,Rainwise IP-100,2013-06-18 21:41:00,
2013-06-18 17:46:00,65.0,50.5,29.85,SW,225,0.0,4.0,60,0.00,,,0.00,Rainwise IP-100,2013-06-18 21:46:00,
2013-06-18 17:52:00,64.0,50.5,29.86,SW,225,2.0,4.0,62,0.00,,,0.00,Rainwise IP-100,2013-06-18 21:52:00,
2013-06-18 17:57:00,64.0,50.0,29.86,SW,225,1.0,5.0,60,0.00,,,0.00,Rainwise IP-100,2013-06-18 21:57:00,
2013-06-18 18:02:00,63.0,50.0,29.86,SW,225,0.0,3.0,62,0.00,,,0.00,Rainwise IP-100,2013-06-18 22:02:00,
2013-06-18 18:07:00,63.0,48.0,29.86,SW,225,0.0,3.0,59,0.00,,,0.00,Rainwise IP-100,2013-06-18 22:07:00,
2013-06-18 18:12:00,63.0,48.0,29.86,SSW,202,0.0,2.0,59,0.00,,,0.00,Rainwise IP-100,2013-06-18 22:12:00,
2013-06-18 18:17:00,63.0,47.5,29.86,SSW,202,0.0,3.0,57,0.00,,,0.00,Rainwise IP-100,2013-06-18 22:17:00,
2013-06-18 18:22:00,63.0,48.0,29.85,NNW,337,0.0,1.0,59,0.00,,,0.00,Rainwise IP-100,2013-06-18 22:22:00,
2013-06-18 18:27:00,63.0,47.0,29.85,NNW,337,0.0,3.0,56,0.00,,,0.00,Rainwise IP-100,2013-06-18 22:27:00,
2013-06-18 18:32:00,63.0,47.5,29.84,NNE,22,6.0,6.0,57,0.00,,,0.00,Rainwise IP-100,2013-06-18 22:32:00,
2013-06-18 18:37:00,62.0,46.0,29.84,NNE,22,7.0,11.0,55,0.00,,,0.00,Rainwise IP-100,2013-06-18 22:37:00,
2013-06-18 18:42:00,61.0,45.0,29.87,ENE,67,5.0,10.0,55,0.00,,,0.00,Rainwise IP-100,2013-06-18 22:42:00,
2013-06-18 18:47:00,61.0,43.0,29.87,NE,45,7.0,12.0,52,0.00,,,0.00,Rainwise IP-100,2013-06-18 22:47:00,
2013-06-18 18:52:00,60.0,42.0,29.87,East,90,6.0,12.0,51,0.00,,,0.00,Rainwise IP-100,2013-06-18 22:52:00,
2013-06-18 18:58:00,61.0,41.0,29.87,ENE,67,0.0,9.0,48,0.00,,,0.00,Rainwise IP-100,2013-06-18 22:58:00,
2013-06-18 19:03:00,60.0,39.0,29.87,ENE,67,1.0,10.0,46,0.00,,,0.00,Rainwise IP-100,2013-06-18 23:03:00,
2013-06-18 19:08:00,61.0,39.0,29.87,NE,45,2.0,7.0,44,0.00,,,0.00,Rainwise IP-100,2013-06-18 23:08:00,
2013-06-18 19:13:00,61.0,38.0,29.87,East,90,6.0,11.0,43,0.00,,,0.00,Rainwise IP-100,2013-06-18 23:13:00,
2013-06-18 19:18:00,61.0,38.0,29.87,East,90,3.0,10.0,42,0.00,,,0.00,Rainwise IP-100,2013-06-18 23:18:00,
2013-06-18 19:23:00,61.0,37.0,29.88,SE,135,0.0,10.0,41,0.00,,,0.00,Rainwise IP-100,2013-06-18 23:23:00,
2013-06-18 19:28:00,61.0,37.0,29.88,East,90,1.0,12.0,40,0.00,,,0.00,Rainwise IP-100,2013-06-18 23:28:00,
2013-06-18 19:33:00,60.0,35.0,29.88,SE,135,6.0,8.0,39,0.00,,,0.00,Rainwise IP-100,2013-06-18 23:33:00,
2013-06-18 19:38:00,60.0,35.0,29.88,East,90,0.0,7.0,39,0.00,,,0.00,Rainwise IP-100,2013-06-18 23:38:00,
2013-06-18 19:43:00,60.0,35.0,29.89,NE,45,0.0,7.0,38,0.00,,,0.00,Rainwise IP-100,2013-06-18 23:43:00,
2013-06-18 19:48:00,60.0,35.0,29.89,ENE,67,0.0,9.0,38,0.00,,,0.00,Rainwise IP-100,2013-06-18 23:48:00,
2013-06-18 19:53:00,60.0,33.0,29.89,East,90,2.0,11.0,36,0.00,,,0.00,Rainwise IP-100,2013-06-18 23:53:00,
2013-06-18 19:58:00,60.0,32.0,29.89,ENE,67,6.0,10.0,35,0.00,,,0.00,Rainwise IP-100,2013-06-18 23:58:00,
2013-06-18 20:03:00,60.0,32.0,29.88,East,90,3.0,10.0,35,0.00,,,0.00,Rainwise IP-100,2013-06-19 00:03:00,
2013-06-18 20:08:00,60.0,32.0,29.88,NNE,22,4.0,9.0,35,0.00,,,0.00,Rainwise IP-100,2013-06-19 00:08:00,
2013-06-18 20:14:00,61.0,32.0,29.87,NE,45,0.0,11.0,33,0.00,,,0.00,Rainwise IP-100,2013-06-19 00:14:00,
2013-06-18 20:19:00,61.0,32.0,29.87,ENE,67,6.0,10.0,34,0.00,,,0.00,Rainwise IP-100,2013-06-19 00:19:00,
2013-06-18 20:24:00,61.0,32.0,29.87,ENE,67,6.0,12.0,33,0.00,,,0.00,Rainwise IP-100,2013-06-19 00:24:00,
2013-06-18 20:29:00,61.0,32.0,29.87,ENE,67,9.0,10.0,33,0.00,,,0.00,Rainwise IP-100,2013-06-19 00:29:00,
2013-06-18 20:34:00,61.0,31.0,29.87,East,90,4.0,10.0,32,0.00,,,0.00,Rainwise IP-100,2013-06-19 00:34:00,
2013-06-18 20:39:00,61.0,32.0,29.87,NE,45,2.0,9.0,33,0.00,,,0.00,Rainwise IP-100,2013-06-19 00:39:00,
2013-06-18 20:44:00,61.0,31.0,29.87,East,90,3.0,13.0,32,0.00,,,0.00,Rainwise IP-100,2013-06-19 00:44:00,
2013-06-18 20:49:00,61.0,31.0,29.87,ESE,112,4.0,10.0,32,0.00,,,0.00,Rainwise IP-100,2013-06-19 00:49:00,
2013-06-18 20:54:00,61.0,32.0,29.87,East,90,0.0,10.0,33,0.00,,,0.00,Rainwise IP-100,2013-06-19 00:54:00,
2013-06-18 20:59:00,61.0,32.0,29.87,ESE,112,6.0,9.0,33,0.00,,,0.00,Rainwise IP-100,2013-06-19 00:59:00,
2013-06-18 21:04:00,61.0,32.0,29.87,ESE,112,4.0,9.0,33,0.00,,,0.00,Rainwise IP-100,2013-06-19 01:04:00,
2013-06-18 21:09:00,61.0,32.0,29.87,East,90,6.0,12.0,33,0.00,,,0.00,Rainwise IP-100,2013-06-19 01:09:00,
2013-06-18 21:14:00,61.0,32.0,29.88,SE,135,1.0,10.0,33,0.00,,,0.00,Rainwise IP-100,2013-06-19 01:14:00,
2013-06-18 21:20:00,60.0,31.0,29.88,SE,135,7.0,9.0,32,0.00,,,0.00,Rainwise IP-100,2013-06-19 01:20:00,
2013-06-18 21:25:00,60.0,29.0,29.88,South,180,2.0,12.0,31,0.00,,,0.00,Rainwise IP-100,2013-06-19 01:25:00,
2013-06-18 21:30:00,60.0,31.0,29.88,ESE,112,3.0,9.0,33,0.00,,,0.00,Rainwise IP-100,2013-06-19 01:30:00,
2013-06-18 21:35:00,60.0,31.0,29.88,ESE,112,3.0,12.0,32,0.00,,,0.00,Rainwise IP-100,2013-06-19 01:35:00,
2013-06-18 21:40:00,59.0,31.0,29.88,SE,135,6.0,12.0,33,0.00,,,0.00,Rainwise IP-100,2013-06-19 01:40:00,
2013-06-18 21:45:00,60.0,29.0,29.88,SE,135,3.0,12.0,31,0.00,,,0.00,Rainwise IP-100,2013-06-19 01:45:00,
2013-06-18 21:50:00,59.0,31.0,29.88,South,180,7.0,13.0,33,0.00,,,0.00,Rainwise IP-100,2013-06-19 01:50:00,
2013-06-18 21:55:00,59.0,29.0,29.88,SSW,202,0.0,10.0,32,0.00,,,0.00,Rainwise IP-100,2013-06-19 01:55:00,
2013-06-18 22:00:00,59.0,31.0,29.88,SE,135,2.0,10.0,33,0.00,,,0.00,Rainwise IP-100,2013-06-19 02:00:00,
2013-06-18 22:05:00,60.0,29.0,29.88,SE,135,0.0,6.0,31,0.00,,,0.00,Rainwise IP-100,2013-06-19 02:05:00,
2013-06-18 22:10:00,60.0,31.0,29.88,SE,135,1.0,6.0,32,0.00,,,0.00,Rainwise IP-100,2013-06-19 02:10:00,
2013-06-18 22:15:00,60.0,29.0,29.86,SE,135,4.0,8.0,31,0.00,,,0.00,Rainwise IP-100,2013-06-19 02:15:00,
2013-06-18 22:20:00,60.0,42.0,29.86,SE,135,2.0,8.0,52,0.00,,,0.00,Rainwise IP-100,2013-06-19 02:20:00,
2013-06-18 22:25:00,61.0,31.0,29.86,South,180,0.0,7.0,31,0.00,,,0.00,Rainwise IP-100,2013-06-19 02:25:00,
2013-06-18 22:31:00,61.0,43.0,29.85,SSE,157,2.0,5.0,51,0.00,,,0.00,Rainwise IP-100,2013-06-19 02:31:00,
2013-06-18 22:36:00,61.0,31.0,29.85,SW,225,0.0,6.0,31,0.00,,,0.00,Rainwise IP-100,2013-06-19 02:36:00,
2013-06-18 22:41:00,61.0,43.0,29.85,WSW,247,0.0,1.0,51,0.00,,,0.00,Rainwise IP-100,2013-06-19 02:41:00,
2013-06-18 22:46:00,62.0,29.0,29.85,NNW,337,0.0,4.0,29,0.00,,,0.00,Rainwise IP-100,2013-06-19 02:46:00,
2013-06-18 22:51:00,62.0,44.0,29.85,NNW,337,0.0,6.0,51,0.00,,,0.00,Rainwise IP-100,2013-06-19 02:51:00,
2013-06-18 22:56:00,62.0,29.0,29.85,WSW,247,0.0,2.0,29,0.00,,,0.00,Rainwise IP-100,2013-06-19 02:56:00,
2013-06-18 23:01:00,62.0,43.0,29.84,SW,225,0.0,2.0,50,0.00,,,0.00,Rainwise IP-100,2013-06-19 03:01:00,
2013-06-18 23:06:00,62.0,29.0,29.84,NW,315,2.0,3.0,29,0.00,,,0.00,Rainwise IP-100,2013-06-19 03:06:00,
2013-06-18 23:11:00,62.0,43.0,29.83,NNW,337,2.0,3.0,50,0.00,,,0.00,Rainwise IP-100,2013-06-19 03:11:00,
2013-06-18 23:16:00,62.0,29.0,29.83,NNW,337,1.0,6.0,29,0.00,,,0.00,Rainwise IP-100,2013-06-19 03:16:00,
2013-06-18 23:21:00,61.0,42.0,29.84,NNE,22,2.0,10.0,50,0.00,,,0.00,Rainwise IP-100,2013-06-19 03:21:00,
2013-06-18 23:26:00,60.0,28.0,29.84,NNE,22,0.0,6.0,29,0.00,,,0.00,Rainwise IP-100,2013-06-19 03:26:00,
2013-06-18 23:31:00,60.0,28.0,29.84,NNE,22,5.0,9.0,29,0.00,,,0.00,Rainwise IP-100,2013-06-19 03:31:00,
2013-06-18 23:37:00,60.0,28.0,29.84,North,360,4.0,10.0,29,0.00,,,0.00,Rainwise IP-100,2013-06-19 03:37:00,
2013-06-18 23:42:00,60.0,28.0,29.84,NNE,22,0.0,12.0,29,0.00,,,0.00,Rainwise IP-100,2013-06-19 03:42:00,
2013-06-18 23:47:00,60.0,28.0,29.84,NNE,22,1.0,8.0,29,0.00,,,0.00,Rainwise IP-100,2013-06-19 03:47:00,
2013-06-18 23:52:00,60.0,28.0,29.84,North,360,6.0,10.0,29,0.00,,,0.00,Rainwise IP-100,2013-06-19 03:52:00,
2013-06-18 23:57:00,60.0,28.0,29.84,North,360,1.0,9.0,29,0.00,,,0.00,Rainwise IP-100,2013-06-19 03:57:00,